#timestamp,LO_Frequency,Hit,StdDev 
1645225215.5,286046999.9,N
1645225235.3,286047000.0,N
1645225255.2,286046998.1,N
1645225275.0,286046998.1,N
1645225275.9,286046998.1,N
1645225295.7,286047000.8,N
1645225315.6,286047000.8,N
1645225335.4,286047000.5,N
1645225355.3,286046999.8,N
1645225375.1,286046999.8,N
1645225376.0,286046999.8,N
1645225395.8,286046999.9,N
1645225415.7,286046999.7,N
1645225435.5,286047002.7,N
1645225455.3,286047000.6,N
1645225475.2,286046998.4,N
1645225495.0,286046999.4,N
1645225495.9,286046999.4,N
1645225515.8,286046997.3,N
1645225535.6,286046999.5,N
1645225555.4,286046999.3,N
1645225575.3,286047000.0,N
1645225595.1,286047001.2,N
1645225615.9,286047001.2,N
1645225635.7,286046998.9,N
1645225655.5,286046998.1,N
1645225675.4,286047001.2,N
1645225695.2,286046998.4,N
1645225745.1,286046999.3,E
1645225755.9,286046998.3,N
1645225775.7,286046998.8,P
1645225795.6,286047000.6,N
1645225815.4,286047002.1,N
1645225835.2,286047001.1,N
1645225855.1,286047001.2,N
1645225856.0,286047001.2,N
1645225875.8,286047000.5,N
1645225895.7,286047002.3,N
1645225915.5,286047002.8,N
1645225935.3,286047002.3,N
1645225955.2,286047002.6,N
1645225975.0,286047001.0,N
1645225975.9,286047001.0,N
1645225995.7,286047001.1,N
1645226015.6,286047000.8,N
1645226035.4,286046998.3,N
1645226055.3,286046998.8,N
1645226075.1,286046999.6,N
1645226076.0,286046999.6,N
1645226095.8,286046999.3,N
1645226115.7,286046998.2,N
1645226135.5,286046998.3,N
1645226155.3,286047000.4,N
1645226175.2,286047000.4,N
1645226195.0,286047000.7,N
1645226195.9,286047000.7,N
1645226215.8,286046999.4,N
1645226235.6,286046999.1,N
1645226255.4,286046999.6,N
1645226275.3,286046996.6,N
1645226295.1,286046997.2,N
1645226315.9,286046996.9,N
1645226335.7,286046997.2,N
1645226355.5,286046997.3,N
1645226375.4,286046997.8,N
1645226395.2,286046997.6,N
1645226415.0,286046997.7,N
1645226415.9,286046997.7,N
1645226435.8,286046997.0,N
1645226455.6,286046999.5,N
1645226475.5,286046998.9,N
1645226495.3,286046999.2,N
1645226515.1,286046996.8,N
1645226535.9,286046996.9,N
1645226555.7,286046997.2,N
1645226575.5,286046999.1,N
1645226595.4,286046999.6,N
1645226615.2,286046997.2,N
1645226635.1,286046996.7,N
1645226636.0,286046996.7,N
1645226655.8,286046996.6,N
1645226675.6,286046997.4,N
1645226695.5,286046996.9,N
1645226715.3,286046997.0,N
1645226735.1,286046996.5,N
1645226755.9,286046999.1,N
1645226775.7,286046999.1,N
1645226795.6,286046997.3,N
1645226815.4,286046997.9,N
1645226865.3,286046995.1,E
1645226875.2,286046999.5,N
1645226895.0,286046998.2,P
1645226895.9,286046998.2,N
1645226915.8,286046998.2,N
1645226935.6,286046998.3,Y
1645226955.4,286047000.1,P
1645226975.3,286046998.1,N
1645226995.1,286046998.1,N
1645227015.9,286047000.4,N
1645227035.7,286047002.3,N
1645227055.5,286047002.5,N
1645227075.4,286047002.6,N
1645227095.2,286047001.3,N
1645227115.0,286047002.2,N
1645227115.9,286047002.2,N
1645227135.8,286047001.9,N
1645227155.6,286047001.9,N
1645227175.5,286047002.6,N
1645227195.3,286047002.1,N
1645227215.1,286046999.8,N
1645227235.9,286047001.8,N
1645227255.7,286047001.6,N
1645227275.5,286047004.3,N
1645227295.4,286047004.1,N
1645227315.2,286047001.4,N
1645227335.1,286047002.2,N
1645227336.0,286047002.2,N
1645227355.8,286047001.8,N
1645227375.6,286047001.3,N
1645227395.5,286047001.4,N
1645227415.3,286047001.3,N
1645227435.1,286047002.2,N
1645227455.9,286047001.5,N
1645227475.7,286047001.3,N
1645227495.6,286047004.3,Y
1645227515.4,286047002.4,P
1645227535.2,286047002.7,P
1645227555.1,286046999.7,N
1645227556.0,286046999.7,N
1645227575.8,286046999.7,N
1645227595.6,286047001.9,N
1645227615.2,286047001.4,N
1645227635.1,286047001.4,N
1645227636.0,286047001.4,N
1645227655.8,286047002.8,N
1645227675.6,286047002.6,N
1645227695.5,286047002.6,N
1645227715.3,286047004.3,Y
1645227735.1,286046999.9,P
1645227755.9,286046999.7,N
1645227775.7,286047002.1,N
1645227795.6,286047002.4,N
1645227815.4,286047002.3,N
1645227835.2,286047002.4,N
1645227855.1,286047002.5,N
1645227856.0,286047002.5,N
1645227875.8,286046999.7,N
1645227895.7,286047002.6,N
1645227915.5,286047002.6,N
1645227935.3,286047003.5,Y
1645227955.2,286046999.8,P
1645227975.9,286047002.0,N
1645227995.7,286046999.9,N
1645228015.6,286047002.5,N
1645228035.4,286047001.7,N
1645228055.3,286047002.3,N
1645228075.1,286047000.6,N
1645228076.0,286047000.6,N
1645228095.8,286046998.2,N
1645228115.7,286046998.1,N
1645228135.5,286046998.3,N
1645228155.4,286047000.9,N
1645228175.2,286047000.9,N
1645228195.0,286047000.8,N
1645228195.9,286047000.8,N
1645228215.8,286046998.2,N
1645228235.6,286047000.7,N
1645228255.4,286047000.0,N
1645228275.3,286047000.1,N
1645228295.1,286047000.1,N
1645228315.9,286047002.3,N
1645228335.7,286047000.1,N
1645228355.5,286047000.0,N
1645228375.4,286047000.7,N
1645228395.2,286047000.5,N
1645228415.1,286047000.0,N
1645228416.0,286047000.0,N
1645228435.8,286047000.3,N
1645228455.6,286047000.0,N
1645228475.5,286047000.6,N
1645228495.3,286046999.7,N
1645228515.2,286047002.4,N
1645228535.9,286047000.5,N
1645228555.7,286047000.5,N
1645228575.6,286047000.7,N
1645228595.4,286047002.3,N
1645228615.2,286047002.7,N
1645228635.1,286047002.4,N
1645228636.0,286047002.4,N
1645228655.8,286047002.5,N
1645228675.7,286047001.3,N
1645228695.5,286047002.5,N
1645228715.3,286046999.7,N
1645228735.2,286047000.1,N
1645228755.0,286047001.2,N
1645228755.9,286047001.2,N
1645228775.7,286047000.2,N
1645228795.6,286047000.1,N
